Location: Gradaro
(45.0833°N, 10.8833°E)
Time: 09:20:54
(UTC+00:00)

FENGYUN 1C DEB - Pass Details

Date: 24 June 2021
Orbit: 803 x 830 km, 98.8° (Epoch: 28 July)

Event Time Altitude Azimuth Distance (km) Brightness Sun altitude
Exits shadow 21:39:14 30° 175° (S) 1,430 ? -17.8°
Maximum altitude 21:41:58 76° 256° (WSW) 838 ? -18.0°
Drops below altitude 10° 21:47:19 10° 343° (NNW) 2,415 ? -18.4°
Sets 21:49:41 0° 345° (NNW) 3,356 ? -18.6°
